[ hide orbit diagram ]
For accurate long-term ephemerides, please instead use our Horizons system.This orbit viewer was implemented using two-body methods, and hence should not be used for determining accurate long-term trajectories (over several years or decades) or planetary encounter circumstances.
Orbital Elements at Epoch 2459000.5 (2020-May-31.0) TDB
Reference: JPL 9 (heliocentric ecliptic J2000)
Element | Value | Uncertainty (1-sigma) | Units |
e | .270115080025735 | 5.8178e-08 | |
a | 2.586072318305647 | 3.0144e-08 | au |
q | 1.887535187094179 | 1.3851e-07 | au |
i | 5.496822565693469 | 1.398e-05 | deg |
node | 159.7282686248448 | 6.6298e-05 | deg |
peri | 105.6990032369248 | 7.2733e-05 | deg |
M | 201.7391250368202 | 3.235e-05 | deg |
tp | 2459668.275508751646 (2022-Mar-29.77550875) | 0.00014457 | TDB |
period | 1519.005775789643 4.16 | 2.6559e-05 7.271e-08 | d yr |
n | .236997123867325 | 4.1438e-09 | deg/d |
Q | 3.284609449517115 | 3.8287e-08 | au |
|
| | Orbit Determination Parameters
Additional Information
|
[ show covariance matrix ]
Physical Parameter Table
Parameter |
Symbol |
Value |
Units |
Sigma |
Reference |
Notes |
absolute magnitude |
H |
17.3 |
|
n/a |
MPO455582 |
|
|
357665 (2005 JV109) Discovered 2005-May-07 by CSS at Catalina |
Reference: 20130327/Numbers.arc | Last Updated: 2013-03-29 |
|
[ show close-approach data ]
|